Time,TemperatureF,DewpointF,PressureIn,WindDirection,WindDirectionDegrees,WindSpeedMPH,WindSpeedGustMPH,Humidity,HourlyPrecipIn,Conditions,Clouds,dailyrainin,SoftwareType,DateUTC
2013-04-05 00:00:00,47.9,44.5,30.00,NNE,15,5.0,10.0,88,0.00,,---,0.01,VWS V14.01,2013-04-05 05:00:00,
2013-04-05 00:03:00,47.7,44.3,30.00,NNW,342,2.0,6.0,88,0.00,,---,0.00,VWS V14.01,2013-04-05 05:03:00,
2013-04-05 00:08:00,47.7,44.3,30.00,North,350,2.0,6.0,88,0.00,,---,0.00,VWS V14.01,2013-04-05 05:08:00,
2013-04-05 00:13:00,47.7,44.3,30.00,North,355,1.0,6.0,88,0.00,,---,0.00,VWS V14.01,2013-04-05 05:13:00,
2013-04-05 00:15:00,47.7,44.3,30.00,NW,321,2.0,6.0,88,0.00,,---,0.00,VWS V14.01,2013-04-05 05:15:00,
2013-04-05 00:18:00,47.7,44.0,30.00,NNE,29,5.0,10.0,87,0.00,,---,0.00,VWS V14.01,2013-04-05 05:18:00,
2013-04-05 00:23:00,47.7,44.0,30.00,NNW,340,2.0,10.0,87,0.00,,---,0.00,VWS V14.01,2013-04-05 05:23:00,
2013-04-05 00:28:00,47.7,44.0,30.00,NNW,328,1.0,10.0,87,0.00,,---,0.00,VWS V14.01,2013-04-05 05:28:00,
2013-04-05 00:30:00,47.7,44.0,30.01,NNW,327,3.0,10.0,87,0.00,,---,0.00,VWS V14.01,2013-04-05 05:30:00,
2013-04-05 00:33:00,47.7,44.0,30.01,NNW,340,0.0,5.0,87,0.00,,---,0.00,VWS V14.01,2013-04-05 05:33:00,
2013-04-05 00:38:00,47.7,44.3,30.01,NW,326,2.0,5.0,88,0.00,,---,0.00,VWS V14.01,2013-04-05 05:38:00,
2013-04-05 00:43:00,47.6,44.2,30.01,NNW,337,0.0,5.0,88,0.00,,---,0.00,VWS V14.01,2013-04-05 05:43:00,
2013-04-05 00:45:00,47.6,44.2,30.01,NW,313,1.0,5.0,88,0.00,,---,0.00,VWS V14.01,2013-04-05 05:45:00,
2013-04-05 00:48:00,47.6,44.2,30.01,NNW,343,0.0,6.0,88,0.00,,---,0.00,VWS V14.01,2013-04-05 05:48:00,
2013-04-05 00:53:00,47.4,43.7,30.01,North,350,0.0,7.0,87,0.00,,---,0.00,VWS V14.01,2013-04-05 05:53:00,
2013-04-05 00:58:00,47.4,44.0,30.01,North,355,0.0,7.0,88,0.00,,---,0.00,VWS V14.01,2013-04-05 05:58:00,
2013-04-05 01:00:00,47.4,44.0,30.01,NE,34,5.0,7.0,88,0.00,,---,0.00,VWS V14.01,2013-04-05 06:00:00,
2013-04-05 01:03:00,47.4,44.0,30.01,North,349,2.0,7.0,88,0.00,,---,0.00,VWS V14.01,2013-04-05 06:03:00,
2013-04-05 01:08:00,47.4,44.0,30.01,NNW,344,3.0,7.0,88,0.00,,---,0.00,VWS V14.01,2013-04-05 06:08:00,
2013-04-05 01:13:00,47.4,44.0,30.01,NNW,338,2.0,9.0,88,0.00,,---,0.00,VWS V14.01,2013-04-05 06:13:00,
2013-04-05 01:15:00,47.4,44.0,30.01,NW,309,0.0,9.0,88,0.00,,---,0.00,VWS V14.01,2013-04-05 06:15:00,
2013-04-05 01:19:00,47.4,44.0,30.01,NW,324,1.0,4.0,88,0.00,,---,0.00,VWS V14.01,2013-04-05 06:19:00,
2013-04-05 01:24:00,47.3,43.9,30.01,NNW,348,2.0,11.0,88,0.00,,---,0.00,VWS V14.01,2013-04-05 06:24:00,
2013-04-05 01:29:00,47.3,43.9,30.01,NNW,328,3.0,11.0,88,0.00,,---,0.00,VWS V14.01,2013-04-05 06:29:00,
2013-04-05 01:30:00,47.3,43.9,30.02,NNW,336,2.0,11.0,88,0.00,,---,0.00,VWS V14.01,2013-04-05 06:30:00,
2013-04-05 01:34:00,47.3,43.9,30.02,NNW,342,3.0,7.0,88,0.00,,---,0.00,VWS V14.01,2013-04-05 06:34:00,
2013-04-05 01:39:00,47.0,43.6,30.02,NW,325,3.0,7.0,88,0.00,,---,0.00,VWS V14.01,2013-04-05 06:39:00,
2013-04-05 01:44:00,46.8,43.7,30.02,NNW,336,4.0,7.0,89,0.00,,---,0.00,VWS V14.01,2013-04-05 06:44:00,
2013-04-05 01:45:00,46.8,43.7,30.02,North,5,3.0,7.0,89,0.00,,---,0.00,VWS V14.01,2013-04-05 06:45:00,
2013-04-05 01:49:00,46.8,43.7,30.02,NNW,329,2.0,5.0,89,0.00,,---,0.00,VWS V14.01,2013-04-05 06:49:00,
2013-04-05 01:54:00,46.7,43.6,30.02,NW,322,4.0,12.0,89,0.00,,---,0.00,VWS V14.01,2013-04-05 06:54:00,
2013-04-05 01:59:00,46.7,43.6,30.02,WSW,254,5.0,12.0,89,0.00,,---,0.00,VWS V14.01,2013-04-05 06:59:00,
2013-04-05 02:00:00,46.7,43.6,30.02,West,275,2.0,12.0,89,0.00,,---,0.00,VWS V14.01,2013-04-05 07:00:00,
2013-04-05 02:04:00,46.7,43.9,30.02,NW,324,3.0,6.0,90,0.00,,---,0.00,VWS V14.01,2013-04-05 07:04:00,
2013-04-05 02:09:00,46.7,43.9,30.02,NNW,348,2.0,6.0,90,0.00,,---,0.00,VWS V14.01,2013-04-05 07:09:00,
2013-04-05 02:15:00,46.7,43.9,30.02,NW,322,3.0,9.0,90,0.00,,---,0.00,VWS V14.01,2013-04-05 07:15:00,
2013-04-05 02:20:00,46.7,43.9,30.02,NNW,343,10.0,10.0,90,0.00,,---,0.00,VWS V14.01,2013-04-05 07:20:00,
2013-04-05 02:25:00,46.7,43.6,30.02,North,350,3.0,10.0,89,0.00,,---,0.00,VWS V14.01,2013-04-05 07:25:00,
2013-04-05 02:30:00,46.7,43.6,30.02,NNW,333,2.0,3.0,89,0.00,,---,0.00,VWS V14.01,2013-04-05 07:30:00,
2013-04-05 02:36:00,46.7,43.6,30.02,North,350,2.0,6.0,89,0.00,,---,0.00,VWS V14.01,2013-04-05 07:36:00,
2013-04-05 02:41:00,46.7,43.6,30.02,NNE,14,5.0,7.0,89,0.00,,---,0.00,VWS V14.01,2013-04-05 07:41:00,
2013-04-05 02:45:00,46.7,43.6,30.02,NNW,342,0.0,7.0,89,0.00,,---,0.00,VWS V14.01,2013-04-05 07:45:00,
2013-04-05 02:46:00,46.7,43.6,30.02,NNW,342,2.0,2.0,89,0.00,,---,0.00,VWS V14.01,2013-04-05 07:46:00,
2013-04-05 02:51:00,46.7,43.6,30.02,NNE,15,0.0,4.0,89,0.00,,---,0.00,VWS V14.01,2013-04-05 07:51:00,
2013-04-05 02:56:00,46.7,43.6,30.02,NNW,338,0.0,6.0,89,0.00,,---,0.00,VWS V14.01,2013-04-05 07:56:00,
2013-04-05 03:00:00,46.7,43.6,30.02,NNE,16,3.0,6.0,89,0.00,,---,0.00,VWS V14.01,2013-04-05 08:00:00,
2013-04-05 03:02:00,46.7,43.6,30.02,North,5,0.0,3.0,89,0.00,,---,0.00,VWS V14.01,2013-04-05 08:02:00,
2013-04-05 03:07:00,46.5,43.4,30.02,NNW,340,0.0,7.0,89,0.00,,---,0.00,VWS V14.01,2013-04-05 08:07:00,
2013-04-05 03:12:00,46.5,43.7,30.02,NNW,340,0.0,7.0,90,0.00,,---,0.00,VWS V14.01,2013-04-05 08:12:00,
2013-04-05 03:15:00,46.5,43.7,30.01,NNW,340,2.0,7.0,90,0.00,,---,0.00,VWS V14.01,2013-04-05 08:15:00,
2013-04-05 03:17:00,46.5,43.7,30.01,North,355,8.0,8.0,90,0.00,,---,0.00,VWS V14.01,2013-04-05 08:17:00,
2013-04-05 03:22:00,46.4,43.6,30.01,NNW,346,0.0,10.0,90,0.00,,---,0.00,VWS V14.01,2013-04-05 08:22:00,
2013-04-05 03:27:00,46.4,43.6,30.01,North,355,1.0,10.0,90,0.00,,---,0.00,VWS V14.01,2013-04-05 08:27:00,
2013-04-05 03:30:00,46.4,43.6,30.02,North,360,3.0,10.0,90,0.00,,---,0.00,VWS V14.01,2013-04-05 08:30:00,
2013-04-05 03:32:00,46.4,43.6,30.02,North,360,0.0,3.0,90,0.00,,---,0.00,VWS V14.01,2013-04-05 08:32:00,
2013-04-05 03:37:00,46.4,43.6,30.02,NW,325,3.0,5.0,90,0.00,,---,0.00,VWS V14.01,2013-04-05 08:37:00,
2013-04-05 03:42:00,46.5,43.7,30.02,NNW,329,0.0,5.0,90,0.00,,---,0.00,VWS V14.01,2013-04-05 08:42:00,
2013-04-05 03:45:00,46.5,43.7,30.02,North,355,0.0,5.0,90,0.00,,---,0.00,VWS V14.01,2013-04-05 08:45:00,
2013-04-05 03:47:00,46.5,43.7,30.02,NNW,332,3.0,4.0,90,0.00,,---,0.00,VWS V14.01,2013-04-05 08:47:00,
2013-04-05 03:53:00,46.5,43.7,30.02,NNW,343,2.0,4.0,90,0.00,,---,0.00,VWS V14.01,2013-04-05 08:53:00,
2013-04-05 03:58:00,46.5,43.7,30.02,North,355,2.0,5.0,90,0.00,,---,0.00,VWS V14.01,2013-04-05 08:58:00,
2013-04-05 04:00:00,46.5,43.7,30.02,North,360,1.0,5.0,90,0.00,,---,0.00,VWS V14.01,2013-04-05 09:00:00,
2013-04-05 04:03:00,46.5,43.7,30.02,NNW,342,2.0,6.0,90,0.00,,---,0.00,VWS V14.01,2013-04-05 09:03:00,
2013-04-05 04:08:00,46.5,43.7,30.02,NW,318,0.0,6.0,90,0.00,,---,0.00,VWS V14.01,2013-04-05 09:08:00,
2013-04-05 04:13:00,46.5,43.7,30.02,NNW,333,3.0,6.0,90,0.00,,---,0.00,VWS V14.01,2013-04-05 09:13:00,
2013-04-05 04:15:00,46.5,43.7,30.02,NNW,345,3.0,7.0,90,0.00,,---,0.00,VWS V14.01,2013-04-05 09:15:00,
2013-04-05 04:18:00,46.5,43.7,30.02,NNW,348,0.0,3.0,90,0.00,,---,0.00,VWS V14.01,2013-04-05 09:18:00,
2013-04-05 04:23:00,46.5,43.7,30.02,NNW,346,0.0,5.0,90,0.00,,---,0.00,VWS V14.01,2013-04-05 09:23:00,
2013-04-05 04:28:00,46.7,43.6,30.02,WNW,293,0.0,5.0,89,0.00,,---,0.00,VWS V14.01,2013-04-05 09:28:00,
2013-04-05 04:30:00,46.5,43.4,30.01,NNW,346,0.0,6.0,89,0.00,,---,0.00,VWS V14.01,2013-04-05 09:30:00,
2013-04-05 04:33:00,46.7,43.6,30.01,North,360,2.0,4.0,89,0.00,,---,0.00,VWS V14.01,2013-04-05 09:33:00,
2013-04-05 04:38:00,46.7,43.6,30.01,NW,319,2.0,8.0,89,0.00,,---,0.00,VWS V14.01,2013-04-05 09:38:00,
2013-04-05 04:43:00,46.7,43.6,30.01,NNW,348,0.0,8.0,89,0.00,,---,0.00,VWS V14.01,2013-04-05 09:43:00,
2013-04-05 04:45:00,46.7,43.6,30.01,NW,325,0.0,8.0,89,0.00,,---,0.00,VWS V14.01,2013-04-05 09:45:00,
2013-04-05 04:48:00,46.7,43.6,30.01,NNW,336,0.0,7.0,89,0.00,,---,0.00,VWS V14.01,2013-04-05 09:48:00,
2013-04-05 04:53:00,46.7,43.6,30.01,NNW,332,0.0,10.0,89,0.00,,---,0.00,VWS V14.01,2013-04-05 09:53:00,
2013-04-05 04:58:00,46.7,43.6,30.01,NNE,13,5.0,10.0,89,0.00,,---,0.00,VWS V14.01,2013-04-05 09:58:00,
2013-04-05 05:00:00,46.7,43.6,30.02,NW,325,0.0,10.0,89,0.00,,---,0.00,VWS V14.01,2013-04-05 10:00:00,
2013-04-05 05:04:00,46.7,43.6,30.02,North,349,4.0,7.0,89,0.00,,---,0.00,VWS V14.01,2013-04-05 10:04:00,
2013-04-05 05:09:00,46.7,43.6,30.02,North,5,4.0,9.0,89,0.00,,---,0.00,VWS V14.01,2013-04-05 10:09:00,
2013-04-05 05:14:00,46.7,43.6,30.02,NNE,23,7.0,9.0,89,0.00,,---,0.00,VWS V14.01,2013-04-05 10:14:00,
2013-04-05 05:15:00,46.7,43.6,30.02,NNW,339,3.0,9.0,89,0.00,,---,0.00,VWS V14.01,2013-04-05 10:15:00,
2013-04-05 05:19:00,46.7,43.6,30.02,NNE,25,7.0,7.0,89,0.00,,---,0.00,VWS V14.01,2013-04-05 10:19:00,
2013-04-05 05:24:00,46.7,43.3,30.02,North,355,2.0,16.0,88,0.00,,---,0.00,VWS V14.01,2013-04-05 10:24:00,
2013-04-05 05:29:00,46.7,43.3,30.02,NNE,26,2.0,16.0,88,0.00,,---,0.00,VWS V14.01,2013-04-05 10:29:00,
2013-04-05 05:30:00,46.7,43.3,30.02,North,350,4.0,16.0,88,0.00,,---,0.00,VWS V14.01,2013-04-05 10:30:00,
2013-04-05 05:34:00,46.7,43.0,30.02,NNE,32,10.0,10.0,87,0.00,,---,0.00,VWS V14.01,2013-04-05 10:34:00,
2013-04-05 05:40:00,46.7,43.0,30.02,ENE,64,7.0,11.0,87,0.00,,---,0.00,VWS V14.01,2013-04-05 10:40:00,
2013-04-05 05:45:00,46.7,42.7,30.03,North,5,3.0,17.0,86,0.00,,---,0.00,VWS V14.01,2013-04-05 10:45:00,
2013-04-05 05:50:00,46.5,42.5,30.03,NE,55,4.0,15.0,86,0.00,,---,0.00,VWS V14.01,2013-04-05 10:50:00,
2013-04-05 05:55:00,46.5,42.5,30.03,NNW,345,4.0,15.0,86,0.00,,---,0.00,VWS V14.01,2013-04-05 10:55:00,
2013-04-05 06:00:00,46.5,42.5,30.03,North,9,7.0,15.0,86,0.00,,---,0.00,VWS V14.01,2013-04-05 11:00:00,
2013-04-05 06:05:00,46.5,42.5,30.03,North,355,3.0,15.0,86,0.00,,---,0.00,VWS V14.01,2013-04-05 11:05:00,
2013-04-05 06:10:00,46.5,42.5,30.03,North,360,2.0,15.0,86,0.00,,---,0.00,VWS V14.01,2013-04-05 11:10:00,
2013-04-05 06:15:00,46.5,42.5,30.04,NNE,22,4.0,5.0,86,0.00,,---,0.00,VWS V14.01,2013-04-05 11:15:00,
2013-04-05 06:20:00,46.5,42.5,30.04,NNE,26,0.0,12.0,86,0.00,,---,0.00,VWS V14.01,2013-04-05 11:20:00,
2013-04-05 06:25:00,46.5,42.5,30.04,North,5,4.0,12.0,86,0.00,,---,0.00,VWS V14.01,2013-04-05 11:25:00,
2013-04-05 06:30:00,46.5,42.8,30.04,North,355,2.0,3.0,87,0.00,,---,0.00,VWS V14.01,2013-04-05 11:30:00,
2013-04-05 06:35:00,46.4,42.8,30.04,North,360,0.0,9.0,87,0.00,,---,0.00,VWS V14.01,2013-04-05 11:35:00,
2013-04-05 06:40:00,46.4,42.8,30.04,North,5,4.0,9.0,87,0.00,,---,0.00,VWS V14.01,2013-04-05 11:40:00,
2013-04-05 06:45:00,46.4,42.8,30.05,North,10,1.0,9.0,87,0.00,,---,0.00,VWS V14.01,2013-04-05 11:45:00,
2013-04-05 06:46:00,46.4,42.8,30.05,NNW,335,3.0,3.0,87,0.00,,---,0.00,VWS V14.01,2013-04-05 11:46:00,
2013-04-05 06:50:00,46.4,42.8,30.05,NNE,23,4.0,6.0,87,0.00,,---,0.00,VWS V14.01,2013-04-05 11:50:00,
2013-04-05 06:56:00,46.4,43.0,30.05,NE,36,6.0,11.0,88,0.00,,---,0.00,VWS V14.01,2013-04-05 11:56:00,
2013-04-05 07:00:00,46.4,42.8,30.06,NNW,343,4.0,11.0,87,0.00,,---,0.00,VWS V14.01,2013-04-05 12:00:00,
2013-04-05 07:01:00,46.4,42.8,30.06,NNW,346,5.0,5.0,87,0.00,,---,0.00,VWS V14.01,2013-04-05 12:01:00,
2013-04-05 07:06:00,46.4,43.0,30.06,North,355,0.0,6.0,88,0.00,,---,0.00,VWS V14.01,2013-04-05 12:06:00,
2013-04-05 07:11:00,46.5,43.1,30.06,North,360,3.0,7.0,88,0.00,,---,0.00,VWS V14.01,2013-04-05 12:11:00,
2013-04-05 07:15:00,46.5,43.1,30.07,NW,324,2.0,7.0,88,0.00,,---,0.00,VWS V14.01,2013-04-05 12:15:00,
2013-04-05 07:16:00,46.5,43.1,30.07,NNW,328,1.0,2.0,88,0.00,,---,0.00,VWS V14.01,2013-04-05 12:16:00,
2013-04-05 07:21:00,46.5,43.1,30.07,North,5,3.0,7.0,88,0.00,,---,0.00,VWS V14.01,2013-04-05 12:21:00,
2013-04-05 07:27:00,46.5,43.1,30.07,North,5,1.0,7.0,88,0.00,,---,0.00,VWS V14.01,2013-04-05 12:27:00,
2013-04-05 07:30:00,46.7,43.3,30.08,NNW,343,0.0,7.0,88,0.00,,---,0.00,VWS V14.01,2013-04-05 12:30:00,
2013-04-05 07:32:00,46.7,43.3,30.08,NNW,346,3.0,4.0,88,0.00,,---,0.00,VWS V14.01,2013-04-05 12:32:00,
2013-04-05 07:37:00,46.7,43.0,30.08,North,5,1.0,6.0,87,0.00,,---,0.00,VWS V14.01,2013-04-05 12:37:00,
2013-04-05 07:42:00,46.8,43.1,30.08,NNW,340,1.0,6.0,87,0.00,,---,0.00,VWS V14.01,2013-04-05 12:42:00,
2013-04-05 07:45:00,46.8,43.1,30.09,North,355,3.0,6.0,87,0.00,,---,0.00,VWS V14.01,2013-04-05 12:45:00,
2013-04-05 07:47:00,46.8,43.1,30.09,NNE,13,4.0,7.0,87,0.00,,---,0.00,VWS V14.01,2013-04-05 12:47:00,
2013-04-05 07:52:00,47.0,43.3,30.09,NNE,13,4.0,7.0,87,0.00,,---,0.00,VWS V14.01,2013-04-05 12:52:00,
2013-04-05 07:57:00,47.1,43.4,30.09,North,355,2.0,11.0,87,0.00,,---,0.00,VWS V14.01,2013-04-05 12:57:00,
2013-04-05 08:00:00,47.1,43.4,30.09,NNW,329,0.0,11.0,87,0.00,,---,0.00,VWS V14.01,2013-04-05 13:00:00,
2013-04-05 08:02:00,47.1,43.4,30.09,NNW,334,3.0,4.0,87,0.00,,---,0.00,VWS V14.01,2013-04-05 13:02:00,
2013-04-05 08:08:00,47.3,43.6,30.09,NW,319,5.0,5.0,87,0.00,,---,0.00,VWS V14.01,2013-04-05 13:08:00,
2013-04-05 08:13:00,47.4,43.4,30.09,NNW,333,1.0,6.0,86,0.00,,---,0.00,VWS V14.01,2013-04-05 13:13:00,
2013-04-05 08:15:00,47.4,43.4,30.10,North,360,0.0,10.0,86,0.00,,---,0.00,VWS V14.01,2013-04-05 13:15:00,
2013-04-05 08:18:00,47.4,43.4,30.10,North,360,4.0,9.0,86,0.00,,---,0.00,VWS V14.01,2013-04-05 13:18:00,
2013-04-05 08:23:00,47.6,43.3,30.10,NNE,12,4.0,12.0,85,0.00,,---,0.00,VWS V14.01,2013-04-05 13:23:00,
2013-04-05 08:28:00,47.7,43.1,30.10,NNE,29,6.0,12.0,84,0.00,,---,0.00,VWS V14.01,2013-04-05 13:28:00,
2013-04-05 08:30:00,47.9,43.3,30.10,North,5,8.0,12.0,84,0.00,,---,0.00,VWS V14.01,2013-04-05 13:30:00,
2013-04-05 08:33:00,47.9,43.3,30.10,North,355,7.0,13.0,84,0.00,,---,0.00,VWS V14.01,2013-04-05 13:33:00,
2013-04-05 08:38:00,48.0,43.4,30.10,North,360,3.0,13.0,84,0.00,,---,0.00,VWS V14.01,2013-04-05 13:38:00,
2013-04-05 08:44:00,48.0,43.4,30.11,NNW,328,3.0,13.0,84,0.00,,---,0.00,VWS V14.01,2013-04-05 13:44:00,
2013-04-05 08:45:00,48.0,43.4,30.11,North,355,4.0,13.0,84,0.00,,---,0.00,VWS V14.01,2013-04-05 13:45:00,
2013-04-05 08:49:00,48.2,43.6,30.11,NNE,13,9.0,11.0,84,0.00,,---,0.00,VWS V14.01,2013-04-05 13:49:00,
2013-04-05 08:54:00,48.2,43.3,30.11,North,355,7.0,12.0,83,0.00,,---,0.00,VWS V14.01,2013-04-05 13:54:00,
2013-04-05 08:59:00,48.3,43.4,30.11,NNE,19,7.0,12.0,83,0.00,,---,0.00,VWS V14.01,2013-04-05 13:59:00,
2013-04-05 09:00:00,48.3,43.4,30.11,NE,42,9.0,12.0,83,0.00,,---,0.00,VWS V14.01,2013-04-05 14:00:00,
2013-04-05 09:04:00,48.5,43.9,30.11,NNE,24,0.0,11.0,84,0.00,,---,0.00,VWS V14.01,2013-04-05 14:04:00,
2013-04-05 09:09:00,48.6,43.7,30.11,NNW,343,3.0,11.0,83,0.00,,---,0.00,VWS V14.01,2013-04-05 14:09:00,
2013-04-05 09:15:00,48.9,44.0,30.11,NNE,18,13.0,17.0,83,0.00,,---,0.00,VWS V14.01,2013-04-05 14:15:00,
2013-04-05 09:20:00,48.9,44.0,30.11,NE,53,6.0,13.0,83,0.00,,---,0.00,VWS V14.01,2013-04-05 14:20:00,
2013-04-05 09:25:00,49.1,43.8,30.11,NNE,30,11.0,13.0,82,0.00,,---,0.00,VWS V14.01,2013-04-05 14:25:00,
2013-04-05 09:30:00,49.1,44.2,30.11,North,355,1.0,13.0,83,0.00,,---,0.00,VWS V14.01,2013-04-05 14:30:00,
2013-04-05 09:35:00,49.5,44.6,30.11,NE,40,3.0,13.0,83,0.00,,---,0.00,VWS V14.01,2013-04-05 14:35:00,
2013-04-05 09:40:00,49.8,44.5,30.11,NNW,343,3.0,13.0,82,0.00,,---,0.00,VWS V14.01,2013-04-05 14:40:00,
2013-04-05 09:45:00,49.6,44.0,30.11,NNE,26,1.0,2.0,81,0.00,,---,0.00,VWS V14.01,2013-04-05 14:45:00,
2013-04-05 09:50:00,49.9,44.6,30.11,North,5,5.0,10.0,82,0.00,,---,0.00,VWS V14.01,2013-04-05 14:50:00,
2013-04-05 09:55:00,49.9,44.3,30.11,NNW,343,3.0,12.0,81,0.00,,---,0.00,VWS V14.01,2013-04-05 14:55:00,
2013-04-05 10:00:00,50.1,44.8,30.11,NNW,347,3.0,3.0,82,0.00,,---,0.00,VWS V14.01,2013-04-05 15:00:00,
2013-04-05 10:05:00,50.2,44.6,30.11,NNE,13,2.0,13.0,81,0.00,,---,0.00,VWS V14.01,2013-04-05 15:05:00,
2013-04-05 10:10:00,50.5,44.6,30.11,NNW,336,6.0,13.0,80,0.00,,---,0.00,VWS V14.01,2013-04-05 15:10:00,
2013-04-05 10:15:00,50.7,44.8,30.12,NNW,348,10.0,10.0,80,0.00,,---,0.00,VWS V14.01,2013-04-05 15:15:00,
2013-04-05 10:20:00,50.7,44.8,30.12,NNE,15,6.0,12.0,80,0.00,,---,0.00,VWS V14.01,2013-04-05 15:20:00,
2013-04-05 10:25:00,50.7,44.4,30.12,NNE,27,12.0,13.0,79,0.00,,---,0.00,VWS V14.01,2013-04-05 15:25:00,
2013-04-05 10:30:00,50.7,44.8,30.12,North,11,10.0,13.0,80,0.00,,---,0.00,VWS V14.01,2013-04-05 15:30:00,
2013-04-05 10:31:00,50.7,44.8,30.12,NE,42,10.0,14.0,80,0.00,,---,0.00,VWS V14.01,2013-04-05 15:31:00,
2013-04-05 10:36:00,50.7,44.4,30.12,NW,326,3.0,14.0,79,0.00,,---,0.00,VWS V14.01,2013-04-05 15:36:00,
2013-04-05 10:42:00,51.0,45.1,30.12,North,350,6.0,14.0,80,0.00,,---,0.00,VWS V14.01,2013-04-05 15:42:00,
2013-04-05 10:45:00,51.1,44.8,30.14,North,5,2.0,14.0,79,0.00,,---,0.00,VWS V14.01,2013-04-05 15:45:00,
2013-04-05 10:47:00,51.3,45.3,30.14,NNE,26,4.0,6.0,80,0.00,,---,0.00,VWS V14.01,2013-04-05 15:47:00,
2013-04-05 10:52:00,51.4,45.1,30.14,North,355,3.0,11.0,79,0.00,,---,0.00,VWS V14.01,2013-04-05 15:52:00,
2013-04-05 10:57:00,51.6,45.0,30.14,NNW,344,3.0,12.0,78,0.00,,---,0.00,VWS V14.01,2013-04-05 15:57:00,
2013-04-05 11:00:00,51.6,45.3,30.14,North,11,9.0,13.0,79,0.00,,---,0.00,VWS V14.01,2013-04-05 16:00:00,
2013-04-05 11:02:00,51.6,45.0,30.14,NNE,33,9.0,14.0,78,0.00,,---,0.00,VWS V14.01,2013-04-05 16:02:00,
2013-04-05 11:07:00,51.7,44.7,30.14,NE,46,10.0,14.0,77,0.00,,---,0.00,VWS V14.01,2013-04-05 16:07:00,
2013-04-05 11:13:00,51.9,45.3,30.14,NNE,21,8.0,14.0,78,0.00,,---,0.00,VWS V14.01,2013-04-05 16:13:00,
2013-04-05 11:15:00,51.9,45.3,30.14,North,10,5.0,14.0,78,0.00,,---,0.00,VWS V14.01,2013-04-05 16:15:00,
2013-04-05 11:18:00,52.2,45.6,30.14,NNE,19,8.0,14.0,78,0.00,,---,0.00,VWS V14.01,2013-04-05 16:18:00,
2013-04-05 11:23:00,52.3,45.3,30.14,North,5,4.0,14.0,77,0.00,,---,0.00,VWS V14.01,2013-04-05 16:23:00,
2013-04-05 11:28:00,52.8,45.8,30.14,NNW,345,1.0,14.0,77,0.00,,---,0.00,VWS V14.01,2013-04-05 16:28:00,
2013-04-05 11:30:00,52.8,45.8,30.14,NNE,28,7.0,14.0,77,0.00,,---,0.00,VWS V14.01,2013-04-05 16:30:00,
2013-04-05 11:33:00,52.8,45.8,30.14,North,360,1.0,9.0,77,0.00,,---,0.00,VWS V14.01,2013-04-05 16:33:00,
2013-04-05 11:38:00,52.8,45.5,30.14,NE,34,5.0,18.0,76,0.00,,---,0.00,VWS V14.01,2013-04-05 16:38:00,
2013-04-05 11:43:00,53.3,45.9,30.14,NNE,22,4.0,18.0,76,0.00,,---,0.00,VWS V14.01,2013-04-05 16:43:00,
2013-04-05 11:45:00,53.6,45.9,30.13,East,81,5.0,18.0,75,0.00,,---,0.00,VWS V14.01,2013-04-05 16:45:00,
2013-04-05 11:48:00,54.1,46.7,30.13,NNE,16,4.0,11.0,76,0.00,,---,0.00,VWS V14.01,2013-04-05 16:48:00,
2013-04-05 11:53:00,54.7,46.6,30.13,North,360,4.0,15.0,74,0.00,,---,0.00,VWS V14.01,2013-04-05 16:53:00,
2013-04-05 11:58:00,55.0,46.5,30.13,NNE,24,14.0,15.0,73,0.00,,---,0.00,VWS V14.01,2013-04-05 16:58:00,
2013-04-05 12:00:00,55.0,46.2,30.12,NE,42,9.0,15.0,72,0.00,,---,0.00,VWS V14.01,2013-04-05 17:00:00,
2013-04-05 12:04:00,54.8,46.3,30.12,North,5,10.0,14.0,73,0.00,,---,0.00,VWS V14.01,2013-04-05 17:04:00,
2013-04-05 12:09:00,55.4,47.3,30.12,ENE,59,9.0,14.0,74,0.00,,---,0.00,VWS V14.01,2013-04-05 17:09:00,
2013-04-05 12:14:00,56.3,47.8,30.11,North,10,3.0,14.0,73,0.00,,---,0.00,VWS V14.01,2013-04-05 17:14:00,
2013-04-05 12:15:00,56.3,47.8,30.11,NE,38,3.0,14.0,73,0.00,,---,0.00,VWS V14.01,2013-04-05 17:15:00,
2013-04-05 12:20:00,56.7,48.2,30.11,NNE,18,0.0,10.0,73,0.00,,---,0.00,VWS V14.01,2013-04-05 17:20:00,
2013-04-05 12:25:00,57.0,46.9,30.11,NE,43,3.0,14.0,69,0.00,,---,0.00,VWS V14.01,2013-04-05 17:25:00,
2013-04-05 12:30:00,57.2,48.3,30.10,ENE,57,7.0,14.0,72,0.00,,---,0.00,VWS V14.01,2013-04-05 17:30:00,
2013-04-05 12:35:00,57.5,47.8,30.10,North,355,0.0,11.0,70,0.00,,---,0.00,VWS V14.01,2013-04-05 17:35:00,
2013-04-05 12:40:00,58.1,48.8,30.10,NNE,20,9.0,11.0,71,0.00,,---,0.00,VWS V14.01,2013-04-05 17:40:00,
2013-04-05 12:45:00,58.1,47.6,30.11,NNE,33,14.0,15.0,68,0.00,,---,0.00,VWS V14.01,2013-04-05 17:45:00,
2013-04-05 12:50:00,58.4,47.9,30.11,NNW,329,4.0,15.0,68,0.00,,---,0.00,VWS V14.01,2013-04-05 17:50:00,
2013-04-05 12:55:00,58.6,47.7,30.11,NNE,20,5.0,15.0,67,0.00,,---,0.00,VWS V14.01,2013-04-05 17:55:00,
2013-04-05 13:00:00,58.7,48.2,30.10,NNE,17,11.0,11.0,68,0.00,,---,0.00,VWS V14.01,2013-04-05 18:00:00,
2013-04-05 13:06:00,59.3,48.8,30.10,North,9,9.0,12.0,68,0.00,,---,0.00,VWS V14.01,2013-04-05 18:06:00,
2013-04-05 13:11:00,59.9,49.3,30.10,North,355,3.0,12.0,68,0.00,,---,0.00,VWS V14.01,2013-04-05 18:11:00,
2013-04-05 13:15:00,60.2,50.0,30.09,NNE,23,12.0,13.0,69,0.00,,---,0.00,VWS V14.01,2013-04-05 18:15:00,
2013-04-05 13:16:00,60.2,48.4,30.09,NNE,14,9.0,12.0,65,0.00,,---,0.00,VWS V14.01,2013-04-05 18:16:00,
2013-04-05 13:21:00,60.2,48.4,30.09,ENE,63,5.0,12.0,65,0.00,,---,0.00,VWS V14.01,2013-04-05 18:21:00,
2013-04-05 13:26:00,60.5,49.9,30.09,NNE,32,3.0,12.0,68,0.00,,---,0.00,VWS V14.01,2013-04-05 18:26:00,
2013-04-05 13:30:00,60.7,48.9,30.08,NNE,19,5.0,12.0,65,0.00,,---,0.00,VWS V14.01,2013-04-05 18:30:00,
2013-04-05 13:31:00,60.9,51.1,30.08,NNE,32,0.0,7.0,70,0.00,,---,0.00,VWS V14.01,2013-04-05 18:31:00,
2013-04-05 13:36:00,61.3,48.6,30.08,East,86,4.0,11.0,63,0.00,,---,0.00,VWS V14.01,2013-04-05 18:36:00,
2013-04-05 13:41:00,61.6,48.9,30.08,East,93,4.0,11.0,63,0.00,,---,0.00,VWS V14.01,2013-04-05 18:41:00,
2013-04-05 13:45:00,61.6,49.7,30.07,NNE,30,5.0,11.0,65,0.00,,---,0.00,VWS V14.01,2013-04-05 18:45:00,
2013-04-05 13:47:00,61.8,50.3,30.07,NE,37,1.0,6.0,66,0.00,,---,0.00,VWS V14.01,2013-04-05 18:47:00,
2013-04-05 13:52:00,62.1,48.9,30.07,NNW,346,5.0,9.0,62,0.00,,---,0.00,VWS V14.01,2013-04-05 18:52:00,
2013-04-05 13:57:00,62.4,50.1,30.07,NNW,347,3.0,10.0,64,0.00,,---,0.00,VWS V14.01,2013-04-05 18:57:00,
2013-04-05 14:00:00,62.6,50.3,30.07,NNE,22,4.0,10.0,64,0.00,,---,0.00,VWS V14.01,2013-04-05 19:00:00,
2013-04-05 14:02:00,62.9,50.1,30.07,NW,313,6.0,11.0,63,0.00,,---,0.00,VWS V14.01,2013-04-05 19:02:00,
2013-04-05 14:07:00,63.4,51.0,30.07,NNE,12,4.0,11.0,64,0.00,,---,0.00,VWS V14.01,2013-04-05 19:07:00,
2013-04-05 14:12:00,63.5,50.3,30.07,North,5,0.0,11.0,62,0.00,,---,0.00,VWS V14.01,2013-04-05 19:12:00,
2013-04-05 14:15:00,63.7,49.6,30.07,North,355,4.0,12.0,60,0.00,,---,0.00,VWS V14.01,2013-04-05 19:15:00,
2013-04-05 14:17:00,63.9,51.1,30.07,North,5,5.0,6.0,63,0.00,,---,0.00,VWS V14.01,2013-04-05 19:17:00,
2013-04-05 14:22:00,63.9,51.1,30.07,NNW,338,4.0,9.0,63,0.00,,---,0.00,VWS V14.01,2013-04-05 19:22:00,
2013-04-05 14:27:00,63.9,49.3,30.07,NNE,22,5.0,13.0,59,0.00,,---,0.00,VWS V14.01,2013-04-05 19:27:00,
2013-04-05 14:30:00,64.0,49.4,30.06,NW,313,3.0,13.0,59,0.00,,---,0.00,VWS V14.01,2013-04-05 19:30:00,
2013-04-05 14:32:00,64.2,50.0,30.06,NNE,16,9.0,15.0,60,0.00,,---,0.00,VWS V14.01,2013-04-05 19:32:00,
2013-04-05 14:38:00,64.2,48.7,30.06,NNE,21,7.0,15.0,57,0.00,,---,0.00,VWS V14.01,2013-04-05 19:38:00,
2013-04-05 14:43:00,64.2,49.1,30.06,NNE,15,6.0,15.0,58,0.00,,---,0.00,VWS V14.01,2013-04-05 19:43:00,
2013-04-05 14:45:00,64.5,49.9,30.05,North,355,1.0,15.0,59,0.00,,---,0.00,VWS V14.01,2013-04-05 19:45:00,
2013-04-05 14:48:00,64.7,50.5,30.05,North,10,1.0,9.0,60,0.00,,---,0.00,VWS V14.01,2013-04-05 19:48:00,
2013-04-05 14:53:00,65.0,50.3,30.05,NE,34,4.0,9.0,59,0.00,,---,0.00,VWS V14.01,2013-04-05 19:53:00,
2013-04-05 14:58:00,65.5,50.3,30.05,North,355,6.0,10.0,58,0.00,,---,0.00,VWS V14.01,2013-04-05 19:58:00,
2013-04-05 15:00:00,65.8,50.2,30.05,North,360,9.0,10.0,57,0.00,,---,0.00,VWS V14.01,2013-04-05 20:00:00,
2013-04-05 15:03:00,65.8,50.2,30.05,NNW,327,0.0,12.0,57,0.00,,---,0.00,VWS V14.01,2013-04-05 20:03:00,
2013-04-05 15:08:00,65.8,50.2,30.05,North,355,0.0,12.0,57,0.00,,---,0.00,VWS V14.01,2013-04-05 20:08:00,
2013-04-05 15:13:00,65.6,50.9,30.05,ENE,59,1.0,12.0,59,0.00,,---,0.00,VWS V14.01,2013-04-05 20:13:00,
2013-04-05 15:15:00,65.8,51.1,30.04,North,355,1.0,12.0,59,0.00,,---,0.00,VWS V14.01,2013-04-05 20:15:00,
2013-04-05 15:18:00,66.1,49.5,30.04,NNE,23,6.0,10.0,55,0.00,,---,0.00,VWS V14.01,2013-04-05 20:18:00,
2013-04-05 15:23:00,66.3,50.2,30.04,NE,51,5.0,10.0,56,0.00,,---,0.00,VWS V14.01,2013-04-05 20:23:00,
2013-04-05 15:28:00,66.4,50.2,30.04,ENE,59,2.0,10.0,56,0.00,,---,0.00,VWS V14.01,2013-04-05 20:28:00,
2013-04-05 15:30:00,66.6,49.5,30.03,SSW,200,0.0,10.0,54,0.00,,---,0.00,VWS V14.01,2013-04-05 20:30:00,
2013-04-05 15:33:00,66.4,49.8,30.03,NNW,348,3.0,6.0,55,0.00,,---,0.00,VWS V14.01,2013-04-05 20:33:00,
2013-04-05 15:39:00,66.6,49.0,30.03,North,355,3.0,11.0,53,0.00,,---,0.00,VWS V14.01,2013-04-05 20:39:00,
2013-04-05 15:44:00,66.8,49.6,30.03,North,5,1.0,11.0,54,0.00,,---,0.00,VWS V14.01,2013-04-05 20:44:00,
2013-04-05 15:45:00,66.8,50.1,30.03,NNE,23,6.0,11.0,55,0.00,,---,0.00,VWS V14.01,2013-04-05 20:45:00,
2013-04-05 15:49:00,66.9,49.2,30.03,NNE,16,11.0,18.0,53,0.00,,---,0.00,VWS V14.01,2013-04-05 20:49:00,
2013-04-05 15:54:00,66.9,48.7,30.03,NE,37,4.0,18.0,52,0.00,,---,0.00,VWS V14.01,2013-04-05 20:54:00,
2013-04-05 15:59:00,67.1,49.4,30.02,NNE,12,10.0,18.0,53,0.00,,---,0.00,VWS V14.01,2013-04-05 20:59:00,
2013-04-05 16:00:00,67.1,48.4,30.02,NNE,22,9.0,18.0,51,0.00,,---,0.00,VWS V14.01,2013-04-05 21:00:00,
2013-04-05 16:04:00,66.9,49.2,30.02,North,5,6.0,13.0,53,0.00,,---,0.00,VWS V14.01,2013-04-05 21:04:00,
2013-04-05 16:09:00,66.9,48.2,30.02,NNE,19,1.0,13.0,51,0.00,,---,0.00,VWS V14.01,2013-04-05 21:09:00,
2013-04-05 16:14:00,67.3,48.0,30.02,NNE,13,7.0,13.0,50,0.00,,---,0.00,VWS V14.01,2013-04-05 21:14:00,
2013-04-05 16:15:00,67.3,48.0,30.02,NNE,13,3.0,13.0,50,0.00,,---,0.00,VWS V14.01,2013-04-05 21:15:00,
2013-04-05 16:19:00,67.8,49.0,30.02,NNE,25,9.0,12.0,51,0.00,,---,0.00,VWS V14.01,2013-04-05 21:19:00,
2013-04-05 16:25:00,67.6,48.8,30.02,NNE,13,7.0,12.0,51,0.00,,---,0.00,VWS V14.01,2013-04-05 21:25:00,
2013-04-05 16:30:00,67.8,48.0,30.01,North,11,4.0,12.0,49,0.00,,---,0.00,VWS V14.01,2013-04-05 21:30:00,
2013-04-05 16:35:00,67.9,48.6,30.01,NE,45,7.0,13.0,50,0.00,,---,0.00,VWS V14.01,2013-04-05 21:35:00,
2013-04-05 16:40:00,67.8,48.0,30.01,NNE,12,6.0,13.0,49,0.00,,---,0.00,VWS V14.01,2013-04-05 21:40:00,
2013-04-05 16:45:00,67.8,48.5,30.01,ENE,59,7.0,13.0,50,0.00,,---,0.00,VWS V14.01,2013-04-05 21:45:00,
2013-04-05 16:50:00,67.6,49.4,30.01,NE,45,4.0,7.0,52,0.00,,---,0.00,VWS V14.01,2013-04-05 21:50:00,
2013-04-05 16:55:00,67.9,48.6,30.01,NNE,24,7.0,13.0,50,0.00,,---,0.00,VWS V14.01,2013-04-05 21:55:00,
2013-04-05 17:00:00,67.9,48.6,30.00,NNW,344,0.0,13.0,50,0.00,,---,0.00,VWS V14.01,2013-04-05 22:00:00,
2013-04-05 17:05:00,68.1,48.2,30.00,East,82,4.0,12.0,49,0.00,,---,0.00,VWS V14.01,2013-04-05 22:05:00,
2013-04-05 17:10:00,67.9,48.1,30.00,NNE,32,0.0,12.0,49,0.00,,---,0.00,VWS V14.01,2013-04-05 22:10:00,
2013-04-05 17:15:00,67.9,48.1,30.00,NNE,19,7.0,11.0,49,0.00,,---,0.00,VWS V14.01,2013-04-05 22:15:00,
2013-04-05 17:20:00,67.8,47.4,30.00,NNE,28,9.0,15.0,48,0.00,,---,0.00,VWS V14.01,2013-04-05 22:20:00,
2013-04-05 17:25:00,67.4,47.6,30.00,NNE,32,5.0,15.0,49,0.00,,---,0.00,VWS V14.01,2013-04-05 22:25:00,
2013-04-05 17:30:00,67.6,48.3,30.00,NE,41,6.0,6.0,50,0.00,,---,0.00,VWS V14.01,2013-04-05 22:30:00,
2013-04-05 17:35:00,67.8,48.5,30.00,NNE,28,4.0,7.0,50,0.00,,---,0.00,VWS V14.01,2013-04-05 22:35:00,
2013-04-05 17:40:00,67.9,48.6,30.00,NNE,13,6.0,10.0,50,0.00,,---,0.00,VWS V14.01,2013-04-05 22:40:00,
2013-04-05 17:45:00,68.1,47.7,30.00,North,5,3.0,4.0,48,0.00,,---,0.00,VWS V14.01,2013-04-05 22:45:00,
2013-04-05 17:51:00,67.9,47.5,30.00,North,5,5.0,10.0,48,0.00,,---,0.00,VWS V14.01,2013-04-05 22:51:00,
2013-04-05 17:56:00,67.6,47.8,30.00,NNE,20,4.0,12.0,49,0.00,,---,0.00,VWS V14.01,2013-04-05 22:56:00,
2013-04-05 18:00:00,67.6,48.8,30.01,ENE,63,2.0,12.0,51,0.00,,---,0.00,VWS V14.01,2013-04-05 23:00:00,
2013-04-05 18:01:00,67.6,48.8,30.01,NNE,19,4.0,5.0,51,0.00,,---,0.00,VWS V14.01,2013-04-05 23:01:00,
2013-04-05 18:06:00,67.4,47.6,30.01,NE,36,7.0,11.0,49,0.00,,---,0.00,VWS V14.01,2013-04-05 23:06:00,
2013-04-05 18:12:00,66.9,47.1,30.01,NNE,15,3.0,11.0,49,0.00,,---,0.00,VWS V14.01,2013-04-05 23:12:00,
2013-04-05 18:15:00,66.9,47.7,30.01,NE,36,4.0,11.0,50,0.00,,---,0.00,VWS V14.01,2013-04-05 23:15:00,
2013-04-05 18:17:00,66.9,47.7,30.01,NNE,29,5.0,7.0,50,0.00,,---,0.00,VWS V14.01,2013-04-05 23:17:00,
2013-04-05 18:22:00,66.8,48.1,30.01,NE,43,0.0,7.0,51,0.00,,---,0.00,VWS V14.01,2013-04-05 23:22:00,
2013-04-05 18:27:00,66.8,48.1,30.01,NE,48,3.0,7.0,51,0.00,,---,0.00,VWS V14.01,2013-04-05 23:27:00,
2013-04-05 18:30:00,66.6,47.9,30.01,NNE,28,5.0,7.0,51,0.00,,---,0.00,VWS V14.01,2013-04-05 23:30:00,
2013-04-05 18:32:00,66.6,47.9,30.01,NE,51,6.0,6.0,51,0.00,,---,0.00,VWS V14.01,2013-04-05 23:32:00,
2013-04-05 18:37:00,66.6,47.9,30.01,NNE,19,0.0,6.0,51,0.00,,---,0.00,VWS V14.01,2013-04-05 23:37:00,
2013-04-05 18:42:00,66.3,48.7,30.01,NNE,32,4.0,7.0,53,0.00,,---,0.00,VWS V14.01,2013-04-05 23:42:00,
2013-04-05 18:45:00,66.1,48.5,30.02,NNE,33,0.0,7.0,53,0.00,,---,0.00,VWS V14.01,2013-04-05 23:45:00,
2013-04-05 18:47:00,66.0,48.4,30.02,NNE,33,0.0,0.0,53,0.00,,---,0.00,VWS V14.01,2013-04-05 23:47:00,
2013-04-05 18:52:00,65.5,48.9,30.02,NNE,33,0.0,2.0,55,0.00,,---,0.00,VWS V14.01,2013-04-05 23:52:00,
2013-04-05 18:57:00,65.0,48.9,30.02,NNE,30,0.0,4.0,56,0.00,,---,0.00,VWS V14.01,2013-04-05 23:57:00,
2013-04-05 19:00:00,64.7,49.1,30.02,NNE,30,0.0,4.0,57,0.00,,---,0.00,VWS V14.01,2013-04-06 00:00:00,
2013-04-05 19:02:00,64.3,50.1,30.02,NNE,30,0.0,0.0,60,0.00,,---,0.00,VWS V14.01,2013-04-06 00:02:00,
2013-04-05 19:08:00,63.7,49.1,30.02,NNE,30,0.0,0.0,59,0.00,,---,0.00,VWS V14.01,2013-04-06 00:08:00,
2013-04-05 19:13:00,63.1,49.5,30.02,NNE,30,0.0,0.0,61,0.00,,---,0.00,VWS V14.01,2013-04-06 00:13:00,
2013-04-05 19:15:00,62.7,49.9,30.02,NNE,30,0.0,0.0,63,0.00,,---,0.00,VWS V14.01,2013-04-06 00:15:00,
2013-04-05 19:18:00,62.4,49.2,30.02,NNE,30,0.0,0.0,62,0.00,,---,0.00,VWS V14.01,2013-04-06 00:18:00,
2013-04-05 19:23:00,61.8,49.5,30.02,NNE,30,0.0,0.0,64,0.00,,---,0.00,VWS V14.01,2013-04-06 00:23:00,
2013-04-05 19:28:00,61.3,49.0,30.02,NNE,30,0.0,0.0,64,0.00,,---,0.00,VWS V14.01,2013-04-06 00:28:00,
2013-04-05 19:30:00,61.0,49.2,30.03,NNE,30,0.0,0.0,65,0.00,,---,0.00,VWS V14.01,2013-04-06 00:30:00,
2013-04-05 19:33:00,60.7,49.3,30.03,NNE,30,0.0,0.0,66,0.00,,---,0.00,VWS V14.01,2013-04-06 00:33:00,
2013-04-05 19:38:00,60.2,50.4,30.03,NNE,30,0.0,0.0,70,0.00,,---,0.00,VWS V14.01,2013-04-06 00:38:00,
2013-04-05 19:43:00,59.6,50.2,30.03,NNE,30,0.0,0.0,71,0.00,,---,0.00,VWS V14.01,2013-04-06 00:43:00,
2013-04-05 19:45:00,59.5,50.1,30.03,NNE,30,0.0,0.0,71,0.00,,---,0.00,VWS V14.01,2013-04-06 00:45:00,
2013-04-05 19:48:00,59.0,50.4,30.03,NNE,30,0.0,0.0,73,0.00,,---,0.00,VWS V14.01,2013-04-06 00:48:00,
2013-04-05 19:53:00,58.4,50.5,30.03,NNE,30,0.0,0.0,75,0.00,,---,0.00,VWS V14.01,2013-04-06 00:53:00,
2013-04-05 19:58:00,58.0,50.1,30.03,NNE,30,0.0,0.0,75,0.00,,---,0.00,VWS V14.01,2013-04-06 00:58:00,
2013-04-05 20:00:00,57.8,50.3,30.03,NNE,30,0.0,0.0,76,0.00,,---,0.00,VWS V14.01,2013-04-06 01:00:00,
2013-04-05 20:03:00,57.5,50.4,30.03,NNE,30,0.0,0.0,77,0.00,,---,0.00,VWS V14.01,2013-04-06 01:03:00,
2013-04-05 20:08:00,57.0,49.9,30.03,NNE,30,0.0,0.0,77,0.00,,---,0.00,VWS V14.01,2013-04-06 01:08:00,
2013-04-05 20:13:00,56.6,49.8,30.03,NNE,30,0.0,1.0,78,0.00,,---,0.00,VWS V14.01,2013-04-06 01:13:00,
2013-04-05 20:15:00,56.5,49.7,30.04,NNE,30,0.0,1.0,78,0.00,,---,0.00,VWS V14.01,2013-04-06 01:15:00,
2013-04-05 20:19:00,56.0,49.6,30.04,NNE,30,0.0,0.0,79,0.00,,---,0.00,VWS V14.01,2013-04-06 01:19:00,
2013-04-05 20:24:00,55.7,49.6,30.04,NNE,30,0.0,0.0,80,0.00,,---,0.00,VWS V14.01,2013-04-06 01:24:00,
2013-04-05 20:29:00,55.3,49.6,30.05,NNE,30,0.0,0.0,81,0.00,,---,0.00,VWS V14.01,2013-04-06 01:29:00,
2013-04-05 20:30:00,55.3,49.9,30.05,NNE,30,0.0,0.0,82,0.00,,---,0.00,VWS V14.01,2013-04-06 01:30:00,
2013-04-05 20:34:00,55.0,49.6,30.05,NNE,30,0.0,0.0,82,0.00,,---,0.00,VWS V14.01,2013-04-06 01:34:00,
2013-04-05 20:39:00,54.8,49.7,30.05,NNE,30,0.0,1.0,83,0.00,,---,0.00,VWS V14.01,2013-04-06 01:39:00,
2013-04-05 20:45:00,54.5,49.8,30.05,NNE,30,0.0,1.0,84,0.00,,---,0.00,VWS V14.01,2013-04-06 01:45:00,
2013-04-05 20:50:00,54.4,50.0,30.05,NNE,30,0.0,0.0,85,0.00,,---,0.00,VWS V14.01,2013-04-06 01:50:00,
2013-04-05 20:55:00,54.2,49.8,30.05,NNE,30,0.0,1.0,85,0.00,,---,0.00,VWS V14.01,2013-04-06 01:55:00,
2013-04-05 21:00:00,53.9,49.8,30.06,NNE,30,0.0,1.0,86,0.00,,---,0.00,VWS V14.01,2013-04-06 02:00:00,
2013-04-05 21:05:00,53.9,49.8,30.06,NNE,30,0.0,0.0,86,0.00,,---,0.00,VWS V14.01,2013-04-06 02:05:00,
2013-04-05 21:10:00,53.6,49.5,30.06,NNE,30,0.0,0.0,86,0.00,,---,0.00,VWS V14.01,2013-04-06 02:10:00,
2013-04-05 21:15:00,53.5,49.7,30.07,NNE,30,0.0,0.0,87,0.00,,---,0.00,VWS V14.01,2013-04-06 02:15:00,
2013-04-05 21:20:00,53.3,49.8,30.07,NNE,30,0.0,0.0,88,0.00,,---,0.00,VWS V14.01,2013-04-06 02:20:00,
2013-04-05 21:25:00,53.1,49.7,30.07,NNE,30,0.0,0.0,88,0.00,,---,0.00,VWS V14.01,2013-04-06 02:25:00,
2013-04-05 21:30:00,52.8,49.3,30.07,NNE,30,0.0,0.0,88,0.00,,---,0.00,VWS V14.01,2013-04-06 02:30:00,
2013-04-05 21:35:00,52.5,49.0,30.07,NNE,30,0.0,0.0,88,0.00,,---,0.00,VWS V14.01,2013-04-06 02:35:00,
2013-04-05 21:40:00,52.2,49.1,30.07,NNE,30,0.0,0.0,89,0.00,,---,0.00,VWS V14.01,2013-04-06 02:40:00,
2013-04-05 21:45:00,51.9,48.8,30.07,NNE,30,0.0,0.0,89,0.00,,---,0.00,VWS V14.01,2013-04-06 02:45:00,
2013-04-05 21:51:00,51.7,48.6,30.07,NNE,30,0.0,0.0,89,0.00,,---,0.00,VWS V14.01,2013-04-06 02:51:00,
2013-04-05 21:56:00,51.6,48.5,30.07,NNE,30,0.0,0.0,89,0.00,,---,0.00,VWS V14.01,2013-04-06 02:56:00,
2013-04-05 22:00:00,51.4,48.6,30.07,NNE,30,0.0,0.0,90,0.00,,---,0.00,VWS V14.01,2013-04-06 03:00:00,
2013-04-05 22:01:00,51.3,48.5,30.07,NNE,30,0.0,0.0,90,0.00,,---,0.00,VWS V14.01,2013-04-06 03:01:00,
2013-04-05 22:06:00,51.1,48.3,30.07,NNE,30,0.0,0.0,90,0.00,,---,0.00,VWS V14.01,2013-04-06 03:06:00,
2013-04-05 22:11:00,51.0,48.5,30.07,NNE,30,0.0,0.0,91,0.00,,---,0.00,VWS V14.01,2013-04-06 03:11:00,
2013-04-05 22:15:00,50.8,48.3,30.07,NNE,30,0.0,0.0,91,0.00,,---,0.00,VWS V14.01,2013-04-06 03:15:00,
2013-04-05 22:16:00,50.7,48.2,30.07,NNE,30,0.0,0.0,91,0.00,,---,0.00,VWS V14.01,2013-04-06 03:16:00,
2013-04-05 22:21:00,50.5,48.0,30.07,NNE,30,0.0,0.0,91,0.00,,---,0.00,VWS V14.01,2013-04-06 03:21:00,
2013-04-05 22:27:00,50.4,47.9,30.07,NNE,30,0.0,0.0,91,0.00,,---,0.00,VWS V14.01,2013-04-06 03:27:00,
2013-04-05 22:30:00,50.2,47.7,30.07,NNE,30,0.0,0.0,91,0.00,,---,0.00,VWS V14.01,2013-04-06 03:30:00,
2013-04-05 22:32:00,50.2,47.7,30.07,NNE,30,0.0,0.0,91,0.00,,---,0.00,VWS V14.01,2013-04-06 03:32:00,
2013-04-05 22:37:00,49.9,47.4,30.07,NNE,30,0.0,0.0,91,0.00,,---,0.00,VWS V14.01,2013-04-06 03:37:00,
2013-04-05 22:42:00,49.9,47.4,30.07,NNE,30,0.0,0.0,91,0.00,,---,0.00,VWS V14.01,2013-04-06 03:42:00,
2013-04-05 22:45:00,49.8,47.6,30.08,NNE,30,0.0,0.0,92,0.00,,---,0.00,VWS V14.01,2013-04-06 03:45:00,
2013-04-05 22:47:00,49.8,47.6,30.08,NNE,30,0.0,0.0,92,0.00,,---,0.00,VWS V14.01,2013-04-06 03:47:00,
2013-04-05 22:52:00,49.6,47.4,30.08,NNE,30,0.0,0.0,92,0.00,,---,0.00,VWS V14.01,2013-04-06 03:52:00,
2013-04-05 22:58:00,49.5,47.3,30.08,NNE,30,0.0,0.0,92,0.00,,---,0.00,VWS V14.01,2013-04-06 03:58:00,
2013-04-05 23:00:00,49.4,47.2,30.08,NNE,30,0.0,0.0,92,0.00,,---,0.00,VWS V14.01,2013-04-06 04:00:00,
2013-04-05 23:01:00,49.4,47.2,30.08,NNE,30,0.0,0.0,92,0.00,,---,0.00,VWS V14.01,2013-04-06 04:01:00,
2013-04-05 23:06:00,49.2,47.0,30.08,NNE,30,0.0,0.0,92,0.00,,---,0.00,VWS V14.01,2013-04-06 04:06:00,
2013-04-05 23:11:00,49.1,46.9,30.08,NNE,30,0.0,0.0,92,0.00,,---,0.00,VWS V14.01,2013-04-06 04:11:00,
2013-04-05 23:15:00,49.1,46.9,30.08,NNE,30,0.0,0.0,92,0.00,,---,0.00,VWS V14.01,2013-04-06 04:15:00,
2013-04-05 23:16:00,49.1,46.9,30.08,NNE,30,0.0,0.0,92,0.00,,---,0.00,VWS V14.01,2013-04-06 04:16:00,
2013-04-05 23:21:00,48.9,46.7,30.08,NNE,30,0.0,0.0,92,0.00,,---,0.00,VWS V14.01,2013-04-06 04:21:00,
2013-04-05 23:27:00,48.9,47.0,30.08,NNE,30,0.0,0.0,93,0.00,,---,0.00,VWS V14.01,2013-04-06 04:27:00,
2013-04-05 23:30:00,48.9,47.0,30.08,NNE,30,0.0,0.0,93,0.00,,---,0.00,VWS V14.01,2013-04-06 04:30:00,
2013-04-05 23:32:00,48.8,46.9,30.08,NNE,30,0.0,0.0,93,0.00,,---,0.00,VWS V14.01,2013-04-06 04:32:00,
2013-04-05 23:37:00,48.6,46.7,30.08,NNE,30,0.0,0.0,93,0.00,,---,0.00,VWS V14.01,2013-04-06 04:37:00,
2013-04-05 23:42:00,48.5,46.6,30.08,NNE,30,0.0,0.0,93,0.00,,---,0.00,VWS V14.01,2013-04-06 04:42:00,
2013-04-05 23:45:00,48.5,46.6,30.07,NNE,30,0.0,0.0,93,0.00,,---,0.00,VWS V14.01,2013-04-06 04:45:00,
2013-04-05 23:47:00,48.3,46.4,30.07,NNE,30,0.0,0.0,93,0.00,,---,0.00,VWS V14.01,2013-04-06 04:47:00,
2013-04-05 23:52:00,48.2,46.3,30.07,NNE,30,0.0,0.0,93,0.00,,---,0.00,VWS V14.01,2013-04-06 04:52:00,
2013-04-05 23:57:00,48.0,46.1,30.07,NNE,30,0.0,0.0,93,0.00,,---,0.00,VWS V14.01,2013-04-06 04:57:00,